Regional Weather Roundup
Issued by NWS

Home | Current Version | Previous Version | Graphics & Text | Print | Product List | Glossary On
Versions: 1 2 3 4 5 6 7 8 9 10 11 12 13 14 15 16 17 18 19 20 21 22 23 24 25 26 27 28 29 30 31 32 33 34 35 36 37 38 39 40 41 42 43 44 45 46 47 48 49 50
000
ASUS45 KBOU 250010
RWRCO

WEATHER ROUNDUP FOR COLORADO
NATIONAL WEATHER SERVICE DENVER/BOULDER CO
500 PM MST FRI NOV 24 2017

NOTE: "FAIR" INDICATES FEW OR NO CLOUDS BELOW 12000 FEET WITH NO
SIGNIFICANT WEATHER AND/OR OBSTRUCTIONS TO VISIBILITY.

COZ001>005-013-030-031-250100-
...NORTHWEST COLORADO...

CITY           SKY/WX    TMP DP  RH WIND       PRES   REMARKS
CRAIG          CLOUDY    50  28  42 NW10      30.08R
HAYDEN         MOCLDY    48  30  49 NW13      30.10R
MEEKER         FAIR      52  30  43 N6        30.07R
RABBIT EARS PA CLOUDY    30  30 100 W13G21    30.17R WCI  20
STEAMBOAT SPGS MOCLDY    41  35  79 E5        30.09R
WALDEN         FAIR      34  28  80 W7        30.11R WCI  28
$$

COZ006>008-011-250100-
...WEST CENTRAL VALLEYS...

CITY           SKY/WX    TMP DP  RH WIND       PRES   REMARKS
GRAND JUNCTION FAIR      55  33  43 W6        30.03R
MONTROSE       FAIR      57  30  35 W3        30.06R
EAGLE          MOCLDY    54  29  38 SW9       30.09R
RIFLE          MOCLDY    57  32  38 W10       30.03R
DELTA          FAIR      59  32  36 S3        30.02R
NUCLA          FAIR      64  25  22 N7        30.08R
$$

COZ017>023-064>068-250100-
...SOUTHWEST COLORADO...

CITY           SKY/WX    TMP DP  RH WIND       PRES   REMARKS
DURANGO        FAIR      58  23  26 W15       30.05R
CORTEZ         FAIR      57  25  29 W6        30.07R
PAGOSA SPRINGS FAIR      55  23  29 CALM      30.12R
TELLURIDE      FAIR      49  24  37 W6        30.21S
WOLF CREEK PAS FAIR      34  25  69 SW14      30.34S WCI  24
$$

COZ009-010-012-014-032>034-037-058>063-250100-
...CENTRAL COLORADO...

CITY           SKY/WX    TMP DP  RH WIND       PRES   REMARKS
ASPEN          FAIR      50  28  42 N6        30.10R
BUENA VISTA    CLOUDY    51  20  28 W7G21     30.09R
COPPER MTN     CLOUDY    34  21  60 NW30      30.22R WCI  20
BERTHOUD PASS  FLURRIES  25  14  63 NW30G41   30.20R WCI   8
COTTONWOOD PAS MOCLDY    50  21  32 W10G18    30.16R
GUNNISON       FAIR      52  23  32 NW7       30.12R
KREMMLING      FAIR      45  34  65 N16G28    30.12R
LEADVILLE      LGT SNOW  34  28  79 NW13G24   30.18R WCI  25
MONARCH PASS   FAIR      32  21  64 W31G44    30.37R WCI  17
SALIDA         FAIR      56  22  27 W13G18    30.15R
SUNLIGHT       CLOUDY    36  27  69 W10G21    30.26R
WILKERSON PASS MOCLDY    36  16  44 W17G31    30.21S
$$

COZ069>075-250100-
...SAN LUIS VALLEY/SANGRE DE CRISTO MOUNTAINS...

CITY           SKY/WX    TMP DP  RH WIND       PRES   REMARKS
ALAMOSA        FAIR      55  21  26 N10       30.04R
DEL NORTE      FAIR      55  20  25 NW10G16   30.08R
LA VETA PASS   FAIR      45  19  36 SW9         N/A
SAGUACHE       FAIR      54  23  30 NW22G32   30.09S
$$

COZ035-036-038>040-250100-
...NORTHERN COLORADO FRONT RANGE...

CITY           SKY/WX    TMP DP  RH WIND       PRES   REMARKS
DENVER INTL AP MOCLDY    53  33  46 E14       29.98R
DMNS CITY PARK   N/A     56  31  39 E12G17    29.99R
AURORA         MOCLDY    53  33  48 E9        30.00R
FRONT RANGE AP MOCLDY    54  28  37 NE8       30.01R
ERIE MUNI ARPT FAIR      56  31  38 SE13G21   30.01R
BOULDER MUN AP FAIR      55  32  41 SW7       29.95R
CENTENNIAL     MOCLDY    53  33  46 NE8       30.01R
BROOMFIELD     MOCLDY    57  30  35 SW15G23   29.98R
FORT COLLINS   MOCLDY    54  33  45 W9        29.97R
LONGMONT       MOCLDY    60  32  35 NW10G16   30.00R
$$

COZ041-046-047-076>085-087-088-250100-
...PIKES PEAK/PALMER DIVIDE AND SOUTHERN FOOTHILLS...

CITY           SKY/WX    TMP DP  RH WIND       PRES   REMARKS
COLO. SPRINGS  FAIR      63  19  18 NW16G23   29.97R
A. F. ACADEMY  FAIR      60  14  16 W17G30    29.99R
SCHRIEVER AFB  FAIR      62  13  15 NW18      29.97R
CHEYENNE MTN   FAIR      57  20  23 W3        29.96R
ELLICOTT         N/A    N/A N/A N/A N13G24    29.97R
FALCON         FAIR      58  12  16 NW15G25   30.02R
FORT CARSON    FAIR      62  23  22 W9        29.93R
LIMON          FAIR      50  33  52 N12       29.99R
MONUMENT HILL  CLOUDY    46  32  57 NE12G26   30.06R
CANON CITY     FAIR      63  23  22 W8        29.92R
WALSENBURG     FAIR      61  23  23 NW5       29.94R
TRINIDAD       FAIR      62  24  23 N9        29.90R
$$

COZ042>045-048>051-090-091-250100-
...NORTHEAST COLORADO...

CITY           SKY/WX    TMP DP  RH WIND       PRES   REMARKS
GREELEY ARPT   FAIR      56  34  43 NW18      29.94R
AKRON          LGT RAIN  49  36  61 NE7       29.97R
BURLINGTON     FAIR      55  34  45 N9        29.93R
WRAY           NOT AVBL
YUMA           CLOUDY    50  27  40 N9        29.93S
STERLING       FAIR      54  34  47 NE6       29.94R
HOLYOKE        FAIR      55  28  35 N9        29.92R
FORT MORGAN    CLOUDY    49  35  58 CALM      29.98R
$$

COZ086-089-092>099-250100-
...SOUTHEAST COLORADO...

CITY           SKY/WX    TMP DP  RH WIND       PRES   REMARKS
PUEBLO         FAIR      67  26  21 E3        29.87R
LA JUNTA       FAIR      64  27  24 NE12      29.87R
LAMAR          FAIR      61  30  31 NE12      29.83R
SPRINGFIELD      N/A     57  24  28 NE13      29.84R
$$



USA.gov is the U.S. government's official web portal to all federal, state and local government web resources and services.